Date String (YYYY-MM-DD hh:mm:ss) UTC,Instrument flags,Ambient pressure (hPa),Sample flow (lpm),Bypass flow (lpm),Sample temperature (°C),Ambient temperature (°C),ASC tube jacket temperature (°C),LED temperature (°C),Box temperature (°C),Sample RH (%),Span deviation,Mass concentration (μg/m³),Mass concentration (μg/m³),Mass concentration (μg/m³)
DateTimeUTC,F1_M11,P_M11,Q1_M11,Q2_M11,T1_M11,T2_M11,T3_M11,T4_M11,T5_M11,U1_M11,ZSPAN_M11,X2_M11,X0_M11,X1_M11
2023-02-04 05:00:00,,0826.2,4.99,0.00,25.1,23.8,00.0,33.9,27.0,04.3,0000.0,0000.85,0001.99,0000.39
2023-02-04 05:01:00,,0826.2,4.98,0.00,25.1,23.8,00.0,33.9,27.0,04.4,0000.0,0000.87,0002.05,0000.38
2023-02-04 05:02:00,,0826.2,4.99,0.00,25.1,23.8,00.0,33.9,27.0,04.4,0000.0,0000.90,0002.15,0000.39
2023-02-04 05:03:00,,0826.2,5.01,0.00,25.1,23.8,00.0,33.9,27.0,04.6,0000.0,0000.95,0002.38,0000.39
2023-02-04 05:04:00,,0826.2,5.02,0.00,25.1,23.8,00.0,33.9,27.0,05.0,0000.0,0000.98,0002.83,0000.39
2023-02-04 05:05:00,,0826.2,5.00,0.00,25.1,23.8,00.0,33.9,27.0,05.0,0000.0,0000.95,0002.75,0000.39
2023-02-04 05:06:00,,0826.1,5.01,0.00,25.1,23.8,00.0,33.9,27.0,04.8,0000.0,0000.93,0002.70,0000.40
2023-02-04 05:07:00,,0826.2,4.98,0.00,25.1,23.8,00.0,33.9,27.0,04.7,0000.0,0000.88,0002.72,0000.40
2023-02-04 05:08:00,,0826.2,4.98,0.00,25.1,23.8,00.0,33.9,27.0,04.6,0000.0,0000.85,0002.67,0000.39
2023-02-04 05:09:00,,0826.1,4.98,0.00,25.1,23.8,00.0,33.9,27.0,04.5,0000.0,0000.90,0002.79,0000.40
2023-02-04 05:10:00,,0826.0,5.01,0.00,25.1,23.8,00.0,33.9,27.0,04.1,0000.0,0000.90,0002.84,0000.41
2023-02-04 05:11:00,,0826.1,5.01,0.00,25.1,23.8,00.0,33.9,27.0,04.2,0000.0,0000.88,0002.96,0000.41
2023-02-04 05:12:00,,0826.1,5.00,0.00,25.1,23.8,00.0,33.9,27.0,04.2,0000.0,0000.86,0002.83,0000.41
2023-02-04 05:13:00,,0826.1,4.99,0.00,25.1,23.8,00.0,33.9,26.9,04.4,0000.0,0000.87,0002.77,0000.41
2023-02-04 05:14:00,,0826.0,4.97,0.00,25.1,23.7,00.0,33.9,27.0,04.8,0000.0,0000.88,0002.62,0000.42
2023-02-04 05:15:00,,0826.0,5.00,0.00,25.1,23.7,00.0,33.9,27.0,04.4,0000.0,0000.86,0002.26,0000.42
2023-02-04 05:16:00,,0826.0,5.02,0.00,25.1,23.8,00.0,33.9,26.9,04.2,0000.0,0000.88,0002.41,0000.42
2023-02-04 05:17:00,,0826.1,5.01,0.00,25.1,23.8,00.0,33.9,26.9,04.6,0000.0,0000.89,0002.42,0000.42
2023-02-04 05:18:00,,0825.9,5.02,0.00,25.1,23.8,00.0,33.9,26.9,04.6,0000.0,0000.89,0002.31,0000.42
2023-02-04 05:19:00,,0826.0,5.00,0.00,25.1,23.8,00.0,33.9,26.9,04.5,0000.0,0000.91,0002.35,0000.42
2023-02-04 05:20:00,,0826.0,4.99,0.00,25.1,23.8,00.0,33.9,26.9,04.4,0000.0,0000.87,0002.26,0000.42
2023-02-04 05:21:00,,0825.9,4.97,0.00,25.1,23.8,00.0,33.9,26.9,04.2,0000.0,0000.90,0002.18,0000.42
2023-02-04 05:22:00,,0825.8,5.01,0.00,25.1,23.8,00.0,33.9,26.9,04.2,0000.0,0000.93,0002.02,0000.42
2023-02-04 05:23:00,,0825.9,5.00,0.00,25.1,23.8,00.0,33.9,26.9,04.2,0000.0,0000.97,0002.17,0000.41
2023-02-04 05:24:00,,0825.9,5.00,0.00,25.1,23.8,00.0,33.9,26.9,04.1,0000.0,0000.98,0002.35,0000.41
2023-02-04 05:25:00,,0825.8,5.02,0.00,25.1,23.8,00.0,33.9,27.0,04.3,0000.0,0000.93,0002.23,0000.40
2023-02-04 05:26:00,,0825.8,4.98,0.00,25.1,23.8,00.0,33.9,27.0,04.5,0000.0,0000.91,0002.22,0000.39
2023-02-04 05:27:00,,0826.0,4.98,0.00,25.1,23.8,00.0,33.9,27.0,04.0,0000.0,0000.88,0002.19,0000.40
2023-02-04 05:28:00,,0825.9,5.03,0.00,25.1,23.8,00.0,33.9,26.9,04.4,0000.0,0000.86,0002.07,0000.39
2023-02-04 05:29:00,,0825.9,5.03,0.00,25.1,23.8,00.0,33.9,26.9,04.0,0000.0,0000.88,0002.15,0000.38
2023-02-04 05:30:00,,0825.8,5.01,0.00,25.1,23.8,00.0,33.9,26.9,04.1,0000.0,0000.91,0002.22,0000.39
2023-02-04 05:31:00,,0825.8,4.98,0.00,25.1,23.8,00.0,33.9,26.9,04.2,0000.0,0000.90,0002.23,0000.38
2023-02-04 05:32:00,,0825.9,4.97,0.00,25.1,23.8,00.0,33.9,26.9,04.1,0000.0,0000.87,0002.13,0000.37
2023-02-04 05:33:00,,0825.6,5.01,0.00,25.1,23.7,00.0,33.9,26.8,04.0,0000.0,0000.84,0002.05,0000.36
2023-02-04 05:34:00,,0825.6,5.01,0.00,25.1,23.7,00.0,33.9,26.8,04.2,0000.0,0000.83,0002.13,0000.37
2023-02-04 05:35:00,,0825.6,5.01,0.00,25.1,23.6,00.0,33.9,26.8,04.2,0000.0,0000.83,0002.08,0000.36
2023-02-04 05:36:00,,0825.6,5.00,0.00,25.1,23.6,00.0,33.9,26.8,03.8,0000.0,0000.83,0002.09,0000.36
2023-02-04 05:37:00,,0825.6,4.99,0.00,25.0,23.5,00.0,33.9,26.7,03.7,0000.0,0000.83,0002.07,0000.36
2023-02-04 05:38:00,,0825.6,5.01,0.00,25.0,23.5,00.0,33.9,26.7,04.5,0000.0,0000.83,0001.95,0000.36
2023-02-04 05:39:00,,0825.6,4.99,0.00,25.0,23.5,00.0,33.9,26.7,05.1,0000.0,0000.83,0001.98,0000.36
2023-02-04 05:40:00,,0825.5,5.03,0.00,25.0,23.4,00.0,33.9,26.7,04.3,0000.0,0000.81,0001.90,0000.36
2023-02-04 05:41:00,,0825.6,5.00,0.00,25.0,23.4,00.0,33.9,26.7,04.0,0000.0,0000.76,0001.75,0000.36
2023-02-04 05:42:00,,0825.6,4.98,0.00,25.0,23.4,00.0,33.9,26.6,04.3,0000.0,0000.73,0001.65,0000.35
2023-02-04 05:43:00,,0825.6,4.99,0.00,24.9,23.3,00.0,33.8,26.6,04.4,0000.0,0000.72,0001.65,0000.36
2023-02-04 05:44:00,,0825.7,5.00,0.00,24.9,23.3,00.0,33.8,26.6,04.8,0000.0,0000.77,0001.83,0000.36
2023-02-04 05:45:00,,0825.6,5.01,0.00,24.9,23.3,00.0,33.8,26.6,04.2,0000.0,0000.76,0001.68,0000.35
2023-02-04 05:46:00,,0825.6,5.00,0.00,24.9,23.3,00.0,33.8,26.6,04.5,0000.0,0000.75,0001.58,0000.35
2023-02-04 05:47:00,,0825.5,5.00,0.00,24.9,23.3,00.0,33.8,26.6,05.0,0000.0,0000.73,0001.54,0000.36
2023-02-04 05:48:00,,0825.4,5.00,0.00,24.9,23.3,00.0,33.8,26.6,04.3,0000.0,0000.74,0001.75,0000.36
2023-02-04 05:49:00,,0825.5,4.98,0.00,24.9,23.3,00.0,33.8,26.6,04.1,0000.0,0000.76,0001.86,0000.35
2023-02-04 05:50:00,,0825.5,4.99,0.00,24.9,23.3,00.0,33.8,26.5,04.9,0000.0,0000.77,0001.89,0000.36
2023-02-04 05:51:00,,0825.5,5.02,0.00,24.8,23.3,00.0,33.8,26.5,05.0,0000.0,0000.76,0001.82,0000.35
2023-02-04 05:52:00,,0825.5,5.02,0.00,24.8,23.2,00.0,33.8,26.5,04.6,0000.0,0000.79,0001.91,0000.35
2023-02-04 05:53:00,,0825.5,5.01,0.00,24.8,23.2,00.0,33.7,26.5,04.3,0000.0,0000.81,0002.00,0000.36
2023-02-04 05:54:00,,0825.5,4.96,0.00,24.8,23.2,00.0,33.7,26.5,04.6,0000.0,0000.85,0002.13,0000.37
2023-02-04 05:55:00,,0825.5,5.00,0.00,24.8,23.2,00.0,33.7,26.5,05.2,0000.0,0000.83,0002.14,0000.37
2023-02-04 05:56:00,,0825.4,5.03,0.00,24.8,23.1,00.0,33.7,26.4,04.9,0000.0,0000.82,0002.09,0000.37
2023-02-04 05:57:00,,0825.4,5.02,0.00,24.8,23.1,00.0,33.7,26.4,04.4,0000.0,0000.79,0002.01,0000.36
2023-02-04 05:58:00,,0825.4,4.97,0.00,24.7,23.1,00.0,33.7,26.4,04.4,0000.0,0000.79,0002.05,0000.35
2023-02-04 05:59:00,,0825.3,4.98,0.00,24.7,23.1,00.0,33.7,26.4,04.3,0000.0,0000.76,0001.79,0000.35
